sat.trackr.live / text

‹ back to catalog

STARLINK-11280 [DTC]

NORAD 61245 · 2024-175C

PAYLOAD ACTIVE UNKNOWN

§ Identity

Operator
Country
US
Launch date
2024-09-25
Launch site
AFWTR
Launch vehicle
Mass (kg)
RCS (m²)

Purposes: comms

External: N2YO · Heavens-Above · Gunter

§ Orbital elements

Epoch: 2026-09-21T21:18:33.426432Z

Period
91.74 min
Inclination
53.1601°
Eccentricity
0.0001166
Mean motion
15.69705875 rev/d
Perigee alt
359.0 km
Apogee alt
360.5 km
Semi-major
6,737.9 km
B*
6.3421e-6
RAAN
168.9402°
Arg perigee
117.1486°
Mean anomaly
242.9651°
Rev number
11,418

§ Raw data

STARLINK-11280 [DTC]1 61245U 24175C   26264.88788688  .00000180  00000+0  63421-5 0  99972 61245  53.1601 168.9402 0001166 117.1486 242.9651 15.69705875114185

JSON: /api/v1/satellites/61245 · /tle

For live sub-satellite position, see the globe view (requires WebGL).

§ Visibility from observer

Set your observer location to see the next 7 days of passes ≥ 10°. The values pass through the URL so the page stays shareable.

No JS? Fill the form by hand. The geolocation button needs JavaScript.